一网星座-0410星 (ONEWEB-0410 )

导读 | 星芒AI

ONEWEB-0410 卫星是 OneWeb 通信卫星星座的一部分,旨在为全球提供高速互联网服务。该卫星采用低轨通信技术,支持偏远和农村地区的网络接入。作为 OneWeb 计划部署的数百颗卫星之一,它有助于构建全球覆盖的宽带网络,提升通信基础设施的普及性与稳定性。该卫星由空中客车防务与航天公司制造,于2022年发射入轨,是实现 OneWeb 全球互联网愿景的重要组成部分。

基本信息
目录编号:
51622
目录名称:
ONEWEB-0410
国际标识:
2022-012A
轨道中心:
EARTH
卫星名称:
一网星座-0410星
卫星全名:
一网星座-0410星 (ONEWEB-0410 )
卫星状态:
在轨 (已飞行1404 天)
发射日期:
2022-02-10 UTC
国别 :
英国 (GB)
星等 :
--
轨道信息
数据来源 国际轨道数据 AOE轨道数据
星历时间 2025-12-15T00:37:02+0800
1天前
查看轨道信息
2025-12-10T06:00:00+0800
5天前
查看轨道信息
半长轴 7571.855km 7571.845km
偏心率 0.0002205 0.0001797
轨道倾角 87.912° 87.913°
近地点辐角 140.334° 142.735°
升交点赤经 42.528° 43.477°
平近点角 219.796° 256.553°
近地点 1192.05km 1192.349km
远地点 1195.39km 1195.071km
周期 109.286分钟 109.285分钟
每日圈数 13.176479 13.176506
详细信息
平衡模式:
三轴稳定
覆盖范围:
全球
运营商:
一网卫星公司
运营商所在国:
英国
制造商(研发单位):
一网卫星公司
制造商所在国:
英国
使用方式:
暂无
卫星简介
OneWeb卫星网络由648颗重约125公斤的微型卫星组成,运行在1200公里的轨道上。 每颗卫星都能够提供至少每秒8千兆位的吞吐量,以使用其高吞吐量的Ku频段有效载荷为家庭和移动平台提供互联网接入。该卫星仍在工作。
2D轨道图
3D轨道图
轨道高度分析图
轨道倾角分析图
轨道综合分析图
查看轨道综合分析图